Location: St. Louis
(38.6270°N, 90.1994°W)
Time: 19:57:58
(UTC-06:00)

Vanguard 3 - Pass Details

Date: 06 December 2021
Orbit: 508 x 3260 km, 33.3° (Epoch: 19 January)

Event Time Altitude Azimuth Distance (km) Brightness Sun altitude
Exits shadow 06:25:15 - 271° (W) 6,849 11.3 -7.8°
Reaches altitude 10° 06:28:25 10° 270° (W) 6,187 11.1 -7.2°
Maximum altitude 06:47:35 69° 194° (SSW) 2,793 9.9 -3.8°
Drops below altitude 10° 07:00:05 10° 114° (ESE) 4,244 13.0 -1.6°
Sets 07:02:49 0° 111° (ESE) 4,932 13.9 -1.1°
